Orbital Elements at Epoch 2459200.5 (2020-Dec-17.0) TDB
Reference: JPL 25 (heliocentric ecliptic J2000)
Element | Value | Uncertainty (1-sigma) | Units |
e | .0727157590370479 | 3.4345e-08 | |
a | 2.433111304946974 | 1.0717e-08 | au |
q | 2.256185769586132 | 7.9804e-08 | au |
i | 6.573314589309459 | 3.1062e-06 | deg |
node | 116.7387890206035 | 3.521e-05 | deg |
peri | 49.09823833388139 | 4.4415e-05 | deg |
M | 111.916946555591 | 2.6855e-05 | deg |
tp | 2458769.542201773062 (2019-Oct-13.04220177) | 0.00010319 | TDB |
period | 1386.249465666353 3.80 | 9.1592e-06 2.508e-08 | d yr |
n | .2596935175927751 | 1.7158e-09 | deg/d |
Q | 2.610036840307815 | 1.1497e-08 | au |
|
| | Orbit Determination Parameters
Additional Information
|